Location: Camp Roosevelt
(41.7914°N, 81.1673°W)
Time: 17:52:01
(UTC+00:00)

AQUARIUS - Pass Details

Date: 29 October 2020
Orbit: 650 x 653 km, 98.0° (Epoch: 27 November)

Event Time Altitude Azimuth Distance (km) Brightness Sun altitude
Rises 23:00:40 0° 170° (S) 2,960 7.6 -7.8°
Reaches altitude 10° 23:02:52 10° 171° (S) 2,053 6.8 -8.2°
Maximum altitude 23:07:21 76° 258° (WSW) 678 4.4 -9.0°
Drops below altitude 10° 23:11:52 10° 344° (NNW) 2,068 6.8 -9.8°
Sets 23:14:06 0° 346° (NNW) 2,984 7.6 -10.2°
